Facebook Twitter

Wetterstation Möhlin

Messwerte
  Temperatur Wetter Niederschlag Luftdruck Wind
Sa, 17:00 Uhr 14° - - 1019.7 hPa 0 km/h
Sa, 16:00 Uhr 14° - 0 mm 1019.5 hPa 7 km/h NW

Böen 15 km/h
Sa, 15:00 Uhr 14° - 0 mm 1019.8 hPa 0 km/h NW

Böen 3 km/h
Sa, 14:00 Uhr 13° - 0 mm 1020.5 hPa 0 km/h NW

Böen 14 km/h
Sa, 13:00 Uhr 12° - 0 mm 1021.3 hPa 1 km/h NW
Sa, 12:00 Uhr 10° - 0 mm 1022 hPa 1 km/h NW
Sa, 11:00 Uhr 7° - 0 mm 1022.6 hPa 0 km/h NW
Sa, 10:00 Uhr 4° - 0 mm 1023 hPa 1 km/h O
Sa, 09:00 Uhr 3° - 0 mm 1023.1 hPa 3 km/h O

Böen 5 km/h
Sa, 08:00 Uhr 3° - 0 mm 1022.6 hPa 1 km/h NO

Böen 6 km/h
Sa, 07:00 Uhr 3° - 0 mm 1022.4 hPa 3 km/h O

Böen 6 km/h
Sa, 06:00 Uhr 2° - 0 mm 1022.5 hPa 3 km/h O

Böen 4 km/h
Sa, 05:00 Uhr 3° - 0 mm 1022.3 hPa 1 km/h O
Sa, 04:00 Uhr 4° - 0 mm 1022.1 hPa 3 km/h O

Böen 5 km/h
Sa, 03:00 Uhr 4° - 0 mm 1022.4 hPa 2 km/h NO

Böen 3 km/h
Sa, 02:00 Uhr 5° - 0 mm 1022 hPa 0 km/h NO

Böen 6 km/h
Sa, 01:00 Uhr 5° - 0 mm 1022 hPa 0 km/h NO

Böen 6 km/h
Sa, 00:00 Uhr 5° - 0 mm 1021.8 hPa 1 km/h NO

Böen 5 km/h
Fr, 23:00 Uhr 6° - 0 mm 1021.6 hPa 1 km/h S

Böen 5 km/h
Fr, 22:00 Uhr 7° - 0 mm 1021.2 hPa 1 km/h NO

Alle Zeitangaben MESZ